Location: Cantaing
(50.1487°N, 3.1675°E)
Time: 22:23:20
(UTC+00:00)

Cosmos 2082 Rocket - Pass Details

Date: 18 April 2026
Orbit: 831 x 853 km, 71.0° (Epoch: 19 May)

Event Time Altitude Azimuth Distance (km) Brightness Sun altitude
Exits shadow 03:40:13 10° 268° (W) 2,513 4.1 -10.7°
Reaches altitude 10° 03:40:19 10° 268° (W) 2,484 4.1 -10.7°
Maximum altitude 03:44:48 23° 320° (NW) 1,735 3.8 -10.1°
Drops below altitude 10° 03:49:19 10° 13° (NNE) 2,494 5.3 -9.5°
Sets 03:52:19 0° 27° (NNE) 3,433 6.4 -9.1°
